Location: Unspecified
(34.4136°N, 0.0000°E)
Time: 06:22:39
(UTC+00:00)

SL-14 DEB - Visible Passes

Search period start: 04 April 2026 00:00
Search period end: 14 April 2026 00:00
Orbit: 921 x 948 km, 82.6° (Epoch: 28 March)

Date Brightness Start Highest point End Pass type
(mag) Time Alt. Az. Time Alt. Az. Time Alt. Az.
4 Apr ? 19:28:47 10° NNE 19:32:56 19° ENE 19:33:45 18° E visible
4 Apr ? 21:11:53 10° NNW 21:17:35 53° W 21:17:35 53° W visible
5 Apr ? 19:41:03 10° NNE 19:46:12 28° ENE 19:47:20 26° E visible
5 Apr ? 21:25:17 10° NNW 21:30:41 35° W 21:31:10 34° W visible
6 Apr ? 19:53:39 10° N 19:59:24 42° E 20:00:57 35° ESE visible
6 Apr ? 21:38:57 10° NW 21:43:33 23° W 21:44:47 21° WSW visible
7 Apr ? 20:06:29 10° N 20:12:31 64° E 20:14:38 40° SE visible
7 Apr ? 21:53:11 10° NW 21:56:21 15° W 21:58:28 12° WSW visible
8 Apr ? 20:19:28 10° N 20:25:34 86° W 20:28:23 34° S visible
9 Apr ? 18:49:48 10° NNE 18:53:39 17° ENE 18:57:28 10° ESE visible
9 Apr ? 20:32:37 10° NNW 20:38:34 57° W 20:42:11 24° SSW visible
10 Apr ? 19:01:57 10° NNE 19:06:55 26° ENE 19:11:50 10° SE visible
10 Apr ? 20:45:59 10° NNW 20:51:29 37° W 20:56:04 14° SSW visible
11 Apr ? 19:14:29 10° N 19:20:08 39° ENE 19:25:41 10° SE visible
11 Apr ? 20:59:35 10° NW 21:04:22 25° W 21:09:05 10° SW visible
12 Apr ? 19:27:16 10° N 19:33:15 59° E 19:39:10 10° SSE visible
12 Apr ? 21:13:40 10° NW 21:17:09 16° W 21:20:38 10° WSW visible
13 Apr ? 19:40:14 10° N 19:46:20 88° E 19:52:20 10° S visible
